Regional Weather Roundup
Issued by NWS

Home | Current Version | Previous Version | Graphics & Text | Print | Product List | Glossary On
Versions: 1 2 3 4 5 6 7 8 9 10 11 12 13 14 15 16 17 18 19 20 21 22 23 24 25 26 27 28 29 30 31 32 33 34 35 36 37 38 39 40 41 42 43 44 45 46 47 48 49 50
000
ASUS45 KSLC 170810
RWRUT

UTAH REGIONAL WEATHER ROUNDUP
NATIONAL WEATHER SERVICE SALT LAKE CITY UT
100 AM MST WED DEC 17 2014

UTZ001>011-023>025-170900-

NORTHERN UTAH

CITY           SKY/WX    TMP DP  RH WIND       PRES   REMARKS
BRIGHAM CITY   CLOUDY    32  28  86 NW3       30.01S
HILL AFB       PTCLDY    33  30  89 W1        29.99F
LOGAN          CLOUDY    33  29  85 SW3       30.00F
OGDEN          PTCLDY    33  29  85 CALM      29.99F
PROVO AIRPORT  MOCLDY    36  25  64 CALM      29.99F
SALT LAKE CITY MOCLDY    33  29  85 CALM      29.99F
VERNAL         FOG       24  24 100 CALM      30.09S VSB 1
WENDOVER       CLEAR     25  21  86 CALM      30.01F
HEBER CITY     CLOUDY    32  27  80 CALM      29.99F
WEST JORDAN    MOCLDY    30  28  93 SW3       30.00F

$$

UTZ012>022-026-027-170900-

SOUTHERN/CENTRAL UTAH

CITY           SKY/WX    TMP DP  RH WIND       PRES   REMARKS
BLANDING       CLOUDY    33  29  82 NW6       30.09F WCI  28
BRYCE CANYON   CLOUDY    24  19  81 W3        30.02F
CEDAR CITY     CLOUDY    33  25  72 CALM      29.98F
DELTA          CLOUDY    33  25  74 SW3       29.99S
MILFORD        CLOUDY    30  25  81 NE5       29.98F WCI  25
MOAB/CYNLANDS  CLOUDY    33  31  92 CALM      30.03F
PRICE          PTCLDY    25  17  72 N7        30.02F WCI  17
ST GEORGE      MOSUNNY   43  32  65 CALM      30.01F
KANAB          CLOUDY    37  27  65 NW5       30.05F WCI  34

$$

REGIONAL REPORTS     COLORADO/ARIZONA

CITY           SKY/WX    TMP DP  RH WIND       PRES   REMARKS
CRAIG, CO      CLOUDY    19  17  92 CALM      30.05F
GRAND JUNCTION MOCLDY    30  28  92 E5        30.05F WCI  25
RIFLE          PTCLDY    27  24  89 CALM      30.05F
MONTROSE       CLOUDY    30  26  85 SE3       30.06F
CORTEZ         CLOUDY    32  27  81 CALM      30.03F
PAGE, AZ       CLOUDY    42  27  55 CALM      30.01F
GRAND CANYON   CLOUDY    34  29  82 CALM      30.02F
KINGMAN        CLOUDY    42  37  82 W8        30.00F
FLAGSTAFF      CLOUDY    31  27  85 W3        30.01F

$$

REGIONAL REPORTS    NEVADA/IDAHO/WYOMING

CITY           SKY/WX    TMP DP  RH WIND       PRES   REMARKS
LAS VEGAS, NV  LGT RAIN  49  41  74 S7        29.96S
ELY            PTCLDY    19  17  92 SE6       29.99F WCI  11
ELKO           CLEAR     24  21  88 E8        29.97F WCI  15
POCATELLO, ID  CLOUDY    32  31  96 NE3       30.00F FOG
BURLEY         PTCLDY    29  27  92 N5        29.98F WCI  24
EVANSTON, WY   MOCLDY    27  18  69 SW7       29.98F WCI  19
ROCK SPRINGS   MOCLDY    15  13  91 CALM      30.00F

$$



USA.gov is the U.S. government's official web portal to all federal, state and local government web resources and services.